Погода Томпо

Погода Томпо : погода сейчас, прогноз погоды и архив. Всё, что Вы хотите узнать о погоде Томпо!

Хотите узнать прогноз погоды Томпо? Тогда Вам сюда: Погода Томпо

Поиск расширенной информации на нашем сайте:

Другие новости

Новости СМИ2

Главная страница сайта

Новости сайта

03.07.2017

Напоминаем, что на нашем специализированном сайте Метеоцентр.Азия вы можете получить высокодетализированные автоматические прогнозы погоды по пунктам России, СНГ и мира в авиационном формате (включающие направление и скорость ветра, видимость, явления погоды, количество и форму облачности, нижнюю и верхнюю границу облачности).

Рекомендуем: Отрасли промышленности http://promyshlennosts.ru

Погода Томпо - сегодня

Время (UTC), дата Ветер
(°,м/с) 
Видим.   Явления Облачность Т
(°С)
Тd
(°С)
f(%) Тe
(°С)
Pmin
(гПа)
dP
(гПа)
Po
(мм)
O2
(г/м3)
Тmin Tmax R s Состояние
почвы
06 20.08.17 210 (ЮЗ) 20000 м    8/5 600 м кучево-дожд., средняя 
[Cb cap|Ac trans]
+18.2 +8.8 54 +20  1005.2  -1.1  719  270           
09 20.08.17 тихо ()   20000 м    10/10 600 м кучево-дожд. 
[Cb cap]
+16.2 +10.4 68 +19  1005.6  0.3  720  272    +19.6       
12 20.08.17 тихо ()   4000 м  слаб. ливневой дождь  8/8 600 м кучево-дожд. 
[Cb cap]
+11.4 +10.8 96 +14  1008.7  2.1  721  277           
15 20.08.17 тихо ()   20000 м  {ливн. осадки}  9/9 600 м кучево-дожд. 
[Cb cap]
+9.8 +9 95 +10  1010.4  1.4  722  279           
18 20.08.17 тихо ()   20000 м  {ливн. осадки}  8/5 600 м кучево-дожд., средняя 
[Cb cap|Ac trans]
+8.6 +7.3 92 +9  1011.5  0.8  723  281           
21 20.08.17 тихо ()   20000 м    9/9 600 м кучево-дожд. 
[Cb cap]
+8.8 +8 95 +9  1013.2  1.6  724  281  +8.1      влажная 
00 21.08.17 340 (С) 20000 м    6/6 1000 м 
[Sc]
+12.2 +10 86 +15  1013  0.3  723  277           
03 21.08.17 350 (С) 20000 м    ясно 
+15.4 +6.4 55 +16  1010.9  -1.3  723  275           
06 21.08.17 010 (С) 20000 м    ясно 
+19.3 +7.1 45 +20  1008.8  -1.5  722  271           
09 21.08.17 тихо ()   20000 м    1/0 верхняя 
[Ci fib]
+21.2 +7 40 +21  1007.6  -0.9  721  269    +22.2       
12 21.08.17 тихо ()   20000 м    1/0 верхняя 
[Ci fib]
+12.4 +7.9 74 +12  1009.2  0.3  722  277           
15 21.08.17 тихо ()   20000 м    1/0 верхняя 
[Ci fib]
+5.2 +2.8 84 +5  1011.2  0.6  722  285           
18 21.08.17 тихо ()   20000 м    3/0 верхняя 
[Ci fib]
+3.4 +1.6 88 +3  1012.1  0.5  722  287           
21 21.08.17 тихо ()   20000 м    4/0 верхняя 
[Ci fib]
+2.3 +1.3 93 +2  1012.5  0.2  723  288  +1.6        сухая 
00 22.08.17 тихо ()   20000 м    8/0 средняя, верхняя 
[Ac trans|Cc]
+7.1 +5.5 90 +7  1010.8  -0.7  722  283           
03 22.08.17 360 (С) 20000 м    6/0 средняя, верхняя 
[Ac trans|Cc]
+15.5 +7.7 60 +17  1008  -1.3  721  274           
06 22.08.17 тихо ()   20000 м    10/3 1000 м верхняя 
[Sc|Cs]
+20.4 +10 51 +22  1004.6  -2.5  719  268           
09 22.08.17 220 (ЮЗ) 20000 м    9/3 1000 м средняя, верхняя 
[Sc|Ac trans|Cs]
+20.6 +9.6 49 +22  1002.8  -1.7  718  267    +21.4       
12 22.08.17 190 (Ю) 20000 м    9/4 1000 м средняя, верхняя 
[Sc|Ac trans|Ci fib]
+16.2 +9.9 66 +20  1004.2  0.8  719  271           
15 22.08.17 170 (Ю) 20000 м    9/6 1000 м верхняя 
[Sc|Ci fib]
+15.6 +11.5 77 +20  1005  0.6  719  272           
18 22.08.17 180 (Ю) 20000 м    10/10 1000 м 
[Sc]
+14.8 +9.8 72 +18  1006  0.7  720  273           
21 22.08.17 тихо ()   20000 м    10/10 600 м 
[Sc]
+13.9 +9.2 73 +15  1006.1  720  274  +13.9        сухая 
00 23.08.17 180 (Ю) 20000 м    10/10 600 м 
[Sc]
+15.4 +10.5 73 +20  1005.6  -0.2  719  272           
03 23.08.17 190 (Ю) 20000 м    10/10 1000 м 
[Sc]
+16.6 +5.9 49 +17  1005.2  -0.7  719  272           
06 23.08.17 190 (Ю) 20000 м    10/10 600 м 
[Cu Sc]
+17.4 +6.5 49 +18  1004.3  -0.7  719  271           
Время (UTC), дата Ветер
(°,м/с) 
Видим.   Явления Облачность Т
(°С)
Тd
(°С)
f(%) Тe
(°С)
Pmin
(гПа)
dP
(гПа)
Po
(мм)
O2
(г/м3)
Тmin Tmax R s Состояние
почвы

Для получения пояснительной информации подведите курсор к названию столбца.

ПОГОДА Томпо - архив

Всё, что Вы хотите узнать о погоде Томпо - удобно и подробно!

Выберите нужную дату (начиная с 1 января 2015* года) и нажмите кнопку "Найти".
Будут отображены архивные сводки погоды по пункту Томпо, начиная с указанной даты.


Отображать данные в формате CSV (для использования в таблицах Excel)


Внимание! Наш архив погоды предназначен исключительно для личного некоммерческого использования в познавательных целях. Если Вам необходимы официальные справки о состоянии погоды (для производственных, юридических, коммерческих и т.п. целей), обращайтесь в органы Росгидромета.

*Примечание: данная дата относится к архиву по метеостанциям СССР (Россия, СНГ, Балтия).
Архив по метеостанциям Зарубежной Европы и Азии (кроме Китая) хранится 10 дней, по другим регионам земного шара (Китай, Африка, Америка, Австралия, Океания) - 1 день.

Томпо - район местоположения метеостанции


Название, широта, долгота, высота метеостанции:
Томпо 63.9°ш. 135.9°д. 402 м над ур. моря [Российская Федерация]

Дополнительная информация

В oтличие oт бoльшинства пoгoдных сайтoв мы публикуем пoдрoбную метеoинфoрмацию в детальнoм прoфессиoнальнoм фoрмате.

Характеристики температуры и влажнoсти вoздуха измеряются на высoте 2 м в тени вдали oт зданий и деревьев.
Скoрoсть ветра измеряется на высoте 10 м (на урoвне рoста челoвека скoрoсть ветра ниже в 1.5-2 раза). Если метеoстанция нахoдится в гoрoде или в лесу, тo скoрoсть ветра занижена на 2-4 м/с пo сравнению с oткрытым местoм. Скoрoсть ветра над акватoриями крупных рек и oзёр, а также на вершинах хoлмoв на 2-5 м/с выше, чем в oбычных услoвиях.
Атмoсфернoе давление в разных тoчках местнoсти мoжет значительнo oтличаться oт давления на метеoстанции, в зависимoсти oт услoвий рельефа (при пoдъёме на 10 м давление пoнижается примернo на 1 мм рт.ст.).